Regional Weather Roundup
Issued by NWS Mt. Holly, NJ

Home | Current Version | Previous Version | Text Only | Print | Product List | Glossary On
Versions: 1 2 3 4 5 6 7 8 9 10 11 12 13 14 15 16 17 18 19 20 21 22 23 24 25 26 27 28 29 30 31 32 33 34 35 36 37 38 39 40 41 42 43 44 45 46 47 48 49 50
000
ASUS41 KPHI 060311
RWRPHI

REGIONAL WEATHER ROUNDUP
NATIONAL WEATHER SERVICE MOUNT HOLLY NJ
1100 PM EDT TUE MAY 05 2015

NOTE:  "FAIR" INDICATES FEW OR NO CLOUDS BELOW 12,000 FEET WITH NO
SIGNIFICANT WEATHER AND/OR OBSTRUCTIONS TO VISIBILITY.

 * = STATION DOES NOT REPORT PRECIPITATION (E.G. RAIN, SNOW, ETC.)
        OR FOG.

NJZ015>026-060400-
SOUTHERN NEW JERSEY

CITY           SKY/WX    TMP DP  RH WIND       PRES   REMARKS
POMONA         CLOUDY    72  58  61 W15G23    30.21S
RIO GRANDE*    PTCLDY    64  54  68 SW3         N/A
MILLVILLE      CLOUDY    67  64  90 CALM      30.21S
WRIGHTSTOWN    MOCLDY    67  61  79 SW2       30.18R
MOUNT HOLLY    MOCLDY    68  63  84 CALM      30.20S
TRENTON        CLOUDY    70  56  61 CALM      30.19S

$$
NJZ001>014-060400-
NORTHERN NEW JERSEY

CITY           SKY/WX    TMP DP  RH WIND       PRES   REMARKS
SUSSEX         CLOUDY    65  51  60 CALM      30.23R
ANDOVER*         N/A     64  57  78 CALM      30.21S
MORRISTOWN     MOCLDY    68  55  64 CALM      30.19R
NEWARK         MOCLDY    71  54  54 CALM      30.18S
TETERBORO      MOCLDY    69  53  56 N3        30.17S
CALDWELL       MOCLDY    66  57  72 CALM      30.19S
SOMERVILLE     CLOUDY    65  58  78 CALM      30.17S
ALLAIRE*       CLOUDY    72  55  56 W3        30.19S
TOMS RIVER*    PTCLDY    64  59  82 CALM      30.20F

$$
PAZ043-044-047-054-055-060>062-066>071-060400-
EASTERN PENNSYLVANIA

CITY           SKY/WX    TMP DP  RH WIND       PRES   REMARKS
PHILADELPHIA   CLOUDY    75  58  55 SW7       30.21R
NORTH PHILA    CLOUDY    74  56  53 W3        30.22R
BLUE BELL      MOCLDY    72  59  64 CALM      30.20S
DOYLESTOWN     MOCLDY    69  55  60 CALM      30.20S
QUAKERTOWN*    FAIR      66  59  77 CALM      30.22S
POTTSTOWN      MOCLDY    66  59  78 CALM      30.22S
LANCASTER      CLOUDY    69  57  65 NW3       30.20F
COATESVILLE    MOCLDY    72  57  60 CALM      30.23S
READING        LGT RAIN  70  59  68 CALM      30.20F
ALLENTOWN      CLOUDY    67  56  67 SW3       30.21R
MOUNT POCONO   CLOUDY    65  51  60 N3        30.25S
HAZLETON       CLOUDY    66  55  68 W3        30.28S
WILKES BARRE   CLOUDY    71  44  37 N7        30.23S

$$
DEZALL-MDZ008-012-015-019-020-060400-
DELAWARE AND EASTERN MARYLAND

CITY           SKY/WX    TMP DP  RH WIND       PRES   REMARKS
WILMINGTON     MOCLDY    72  59  63 SW10      30.22S
DOVER          MOCLDY    69  66  90 W3        30.18F
GEORGETOWN     PTCLDY    68  58  70 S10       30.22S
EASTON         CLOUDY    67  66  94 SW5       30.26S
PATUXENT       CLOUDY    66  61  84 W8        30.24S
OCEAN CITY     PTCLDY    67  55  65 SW13      30.24S
WALLOPS ISLAND CLEAR     65  56  72 SW8       30.26R
CAMBRIDGE      CLOUDY    70  61  73 W5        30.22S
SALISBURY      PTCLDY    67  56  67 S10       30.22F

$$
PAZ001-021-NYZ056-072-MDZ011-DCZ001-060400-
OTHER NEARBY LOCATIONS

CITY           SKY/WX    TMP DP  RH WIND       PRES   REMARKS
HARRISBURG     CLOUDY    69  62  78 N5        30.21S
STATE COLLEGE  CLOUDY    62  60  93 E3        30.26S
WILLIAMSPORT   LGT RAIN  65  61  87 W6        30.24R
BINGHAMTON     CLOUDY    62  43  49 N5        30.27S
NEW YORK CITY  PTCLDY    71  52  50 CALM      30.20F
BALTIMORE      PTCLDY    65  62  90 W3        30.22S
WASHINGTON DC  MOCLDY    68  62  81 SW7       30.25S

$$


USA.gov is the U.S. government's official web portal to all federal, state and local government web resources and services.